Hot Springs, VA

2:46 AM EDT on April 27, 2018 (GMT -0400)
Ingalls

Weather History for KHSP - January, 2012

Change the Weather History Date:

Monday, January 30, 2012

  Actual Average Record
Temperature  
Mean Temperature 30 °F -  
Max Temperature 41 °F 33 °F 69 °F (2002)
Min Temperature 19 °F 19 °F 3 °F (2014)
Degree Days  
Heating Degree Days 35    
Moisture  
Dew Point 13 °F    
Average Humidity 50    
Maximum Humidity 64    
Minimum Humidity 41    
Precipitation  
Precipitation 0.00 in - - ()
Sea Level Pressure  
Sea Level Pressure 30.21 in    
Wind  
Wind Speed 17 mph (West)    
Max Wind Speed 24 mph    
Max Gust Speed 37 mph    
Visibility 10 miles    
Events      
Averages and records for this station are not official NWS values.
T = Trace of Precipitation, MM = Missing Value Source: NWS Daily Summary

Daily Weather History Graph

Daily Weather History Graph

Search for Another Location

Airport or City:

Astronomy

Jan. 30, 2012 Rise Set
Actual Time 7:25 AM EST 5:39 PM EST
Civil Twilight 6:57 AM EST 6:07 PM EST
Nautical Twilight 6:26 AM EST 6:39 PM EST
Astronomical Twilight 5:55 AM EST 7:10 PM EST
Moon 10:56 AM EST (1/30) 12:14 AM EST (1/30)
Length of Visible Light 11h 09m
Length of Day
10h 14m
Waxing Crescent, 46% of the Moon is Illuminated
Jan 30
Waxing Crescent
Jan 30
First Quarter
Feb 7
Full
Feb 14
Last Quarter
Feb 21
New

Hourly Weather History & Observations

Time (EST) Temp. Windchill Dew Point Humidity Pressure Visibility Wind Dir Wind Speed Gust Speed Precip Events Conditions
12:36 AM 24.8 °F 10.7 °F 14.0 °F 64% 30.08 in 10.0 mi WNW 19.6 mph 32.2 mph N/A   Scattered Clouds
12:56 AM 24.8 °F 9.3 °F 12.2 °F 59% 30.08 in 10.0 mi WNW 24.2 mph 36.8 mph N/A   Clear
1:16 AM 23.0 °F 7.2 °F 12.2 °F 63% 30.08 in 10.0 mi West 23.0 mph 34.5 mph N/A   Clear
1:37 AM 23.0 °F 8.0 °F 12.2 °F 63% 30.09 in 10.0 mi West 20.7 mph 35.7 mph N/A   Clear
1:56 AM 23.0 °F 8.7 °F 12.2 °F 63% 30.09 in 10.0 mi West 18.4 mph 31.1 mph N/A   Clear
2:17 AM 21.2 °F 5.2 °F 10.4 °F 63% 30.10 in 10.0 mi WNW 21.9 mph 31.1 mph N/A   Clear
2:36 AM 21.2 °F 4.9 °F 10.4 °F 63% 30.10 in 10.0 mi WNW 23.0 mph 34.5 mph N/A   Clear
2:56 AM 21.2 °F 5.6 °F 10.4 °F 63% 30.10 in 10.0 mi WNW 20.7 mph 29.9 mph N/A   Clear
3:16 AM 21.2 °F 4.9 °F 8.6 °F 58% 30.10 in 10.0 mi WNW 23.0 mph 36.8 mph N/A   Clear
3:36 AM 21.2 °F 5.2 °F 8.6 °F 58% 30.10 in 10.0 mi WNW 21.9 mph 29.9 mph N/A   Clear
3:56 AM 21.2 °F 4.5 °F 8.6 °F 58% 30.11 in 10.0 mi WNW 24.2 mph 29.9 mph N/A   Clear
4:16 AM 21.2 °F 5.2 °F 6.8 °F 54% 30.10 in 10.0 mi West 21.9 mph 36.8 mph N/A   Clear
4:36 AM 21.2 °F 5.2 °F 6.8 °F 54% 30.10 in 10.0 mi WNW 21.9 mph 29.9 mph N/A   Clear
4:57 AM 21.2 °F 5.2 °F 6.8 °F 54% 30.11 in 10.0 mi West 21.9 mph 34.5 mph N/A   Clear
5:16 AM 21.2 °F 6.8 °F 5.0 °F 50% 30.12 in 10.0 mi WNW 17.3 mph 31.1 mph N/A   Clear
5:36 AM 21.2 °F 6.8 °F 3.2 °F 46% 30.13 in 10.0 mi West 17.3 mph 28.8 mph N/A   Clear
5:56 AM 21.2 °F 7.3 °F 6.8 °F 54% 30.14 in 10.0 mi West 16.1 mph 27.6 mph N/A   Clear
6:36 AM 19.4 °F 4.1 °F 5.0 °F 54% 30.16 in 10.0 mi West 18.4 mph 25.3 mph N/A   Clear
6:56 AM 19.4 °F 5.0 °F 5.0 °F 54% 30.18 in 10.0 mi West 16.1 mph 23.0 mph N/A   Clear
7:18 AM 19.4 °F 5.5 °F 5.0 °F 54% 30.19 in 10.0 mi West 15.0 mph 21.9 mph N/A   Clear
7:36 AM 19.4 °F 5.5 °F 5.0 °F 54% 30.20 in 10.0 mi West 15.0 mph 23.0 mph N/A   Clear
7:56 AM 21.2 °F 8.9 °F 6.8 °F 54% 30.21 in 10.0 mi West 12.7 mph - N/A   Clear
8:16 AM 21.2 °F 8.3 °F 6.8 °F 54% 30.23 in 10.0 mi West 13.8 mph - N/A   Clear
8:36 AM 21.2 °F 8.9 °F 6.8 °F 54% 30.23 in 10.0 mi West 12.7 mph - N/A   Clear
8:56 AM 21.2 °F 10.1 °F 8.6 °F 58% 30.23 in 10.0 mi West 10.4 mph 16.1 mph N/A   Unknown
9:16 AM 23.0 °F 11.7 °F 8.6 °F 54% 30.23 in 10.0 mi West 11.5 mph 16.1 mph N/A   Clear
9:37 AM 24.8 °F 14.6 °F 10.4 °F 54% 30.25 in 10.0 mi West 10.4 mph - N/A   Clear
9:56 AM 24.8 °F 16.1 °F 10.4 °F 54% 30.26 in 10.0 mi West 8.1 mph - N/A   Clear
10:16 AM 26.6 °F 18.2 °F 10.4 °F 51% 30.27 in 10.0 mi WSW 8.1 mph - N/A   Clear
10:36 AM 26.6 °F 19.1 °F 10.4 °F 51% 30.28 in 10.0 mi WSW 6.9 mph - N/A   Clear
10:56 AM 28.4 °F 20.4 °F 10.4 °F 47% 30.28 in 10.0 mi WSW 8.1 mph - N/A   Clear
11:18 AM 30.2 °F 21.3 °F 12.2 °F 47% 30.29 in 10.0 mi West 10.4 mph - N/A   Clear
11:36 AM 30.2 °F 20.8 °F 12.2 °F 47% 30.28 in 10.0 mi WSW 11.5 mph 16.1 mph N/A   Clear
12:16 PM 33.8 °F 26.4 °F 12.2 °F 41% 30.27 in 10.0 mi WSW 9.2 mph - N/A   Clear
12:36 PM 33.8 °F 25.3 °F 12.2 °F 41% 30.27 in 10.0 mi West 11.5 mph 16.1 mph N/A   Clear
1:18 PM 35.6 °F 26.6 °F 15.8 °F 44% 30.26 in 10.0 mi West 13.8 mph - N/A   Clear
1:36 PM 37.4 °F 28.5 °F 15.8 °F 41% 30.25 in 10.0 mi West 15.0 mph 21.9 mph N/A   Clear
1:56 PM 37.4 °F 28.5 °F 17.6 °F 45% 30.25 in 10.0 mi West 15.0 mph 21.9 mph N/A   Clear
2:16 PM 39.2 °F 31.6 °F 17.6 °F 42% 30.24 in 10.0 mi West 12.7 mph 21.9 mph N/A   Clear
2:37 PM 39.2 °F 30.5 °F 17.6 °F 42% 30.24 in 10.0 mi West 16.1 mph 24.2 mph N/A   Clear
2:55 PM 39.2 °F 30.8 °F 17.6 °F 42% 30.24 in 10.0 mi West 15.0 mph - N/A   Clear
3:35 PM 39.2 °F 30.5 °F 19.4 °F 45% 30.24 in 10.0 mi WSW 16.1 mph - N/A   Clear
3:55 PM 39.2 °F 30.5 °F 19.4 °F 45% 30.24 in 10.0 mi West 16.1 mph - N/A   Clear
4:15 PM 39.2 °F 31.6 °F 19.4 °F 45% 30.25 in 10.0 mi West 12.7 mph 17.3 mph N/A   Clear
4:37 PM 39.2 °F 30.5 °F 19.4 °F 45% 30.25 in 10.0 mi WSW 16.1 mph 24.2 mph N/A   Clear
4:55 PM 39.2 °F 30.8 °F 19.4 °F 45% 30.25 in 10.0 mi WSW 15.0 mph 19.6 mph N/A   Clear
5:15 PM 39.2 °F 32.5 °F 19.4 °F 45% 30.26 in 10.0 mi WSW 10.4 mph - N/A   Clear
5:35 PM 37.4 °F 30.8 °F 19.4 °F 48% 30.26 in 10.0 mi WSW 9.2 mph - N/A   Clear
5:55 PM 37.4 °F 31.4 °F 19.4 °F 48% 30.26 in 10.0 mi SW 8.1 mph - N/A   Clear
6:15 PM 39.2 °F 33.0 °F 19.4 °F 45% 30.26 in 10.0 mi SW 9.2 mph - N/A   Clear
6:35 PM 41.0 °F 35.2 °F 19.4 °F 42% 30.26 in 10.0 mi SSW 9.2 mph 17.3 mph N/A   Clear
6:55 PM 41.0 °F 33.1 °F 19.4 °F 42% 30.25 in 10.0 mi SW 15.0 mph 18.4 mph N/A   Clear
7:17 PM 39.2 °F 31.2 °F 19.4 °F 45% 30.26 in 10.0 mi SW 13.8 mph 19.6 mph N/A   Clear
7:35 PM 39.2 °F 30.8 °F 19.4 °F 45% 30.27 in 10.0 mi WSW 15.0 mph - N/A   Clear
7:55 PM 39.2 °F 30.8 °F 19.4 °F 45% 30.27 in 10.0 mi WSW 15.0 mph - N/A   Clear
8:15 PM 39.2 °F 30.8 °F 19.4 °F 45% 30.28 in 10.0 mi WSW 15.0 mph - N/A   Clear
8:37 PM 39.2 °F 30.8 °F 19.4 °F 45% 30.27 in 10.0 mi WSW 15.0 mph - N/A   Clear
8:55 PM 39.2 °F 30.8 °F 19.4 °F 45% 30.27 in 10.0 mi WSW 15.0 mph 21.9 mph N/A   Clear
9:17 PM 39.2 °F 29.8 °F 19.4 °F 45% 30.27 in 10.0 mi WSW 18.4 mph 23.0 mph N/A   Clear
9:35 PM 39.2 °F 29.0 °F 19.4 °F 45% 30.26 in 10.0 mi WSW 21.9 mph 27.6 mph N/A   Clear
9:56 PM 39.2 °F 29.0 °F 19.4 °F 45% 30.26 in 10.0 mi WSW 21.9 mph 25.3 mph N/A   Clear
10:16 PM 39.2 °F 29.6 °F 19.4 °F 45% 30.26 in 10.0 mi WSW 19.6 mph 26.5 mph N/A   Clear
10:35 PM 39.2 °F 29.3 °F 19.4 °F 45% 30.26 in 10.0 mi WSW 20.7 mph 26.5 mph N/A   Clear
10:55 PM 39.2 °F 29.8 °F 19.4 °F 45% 30.27 in 10.0 mi WSW 18.4 mph 26.5 mph N/A   Clear
11:15 PM 39.2 °F 29.6 °F 19.4 °F 45% 30.27 in 10.0 mi WSW 19.6 mph 24.2 mph N/A   Clear
11:35 PM 39.2 °F 29.6 °F 19.4 °F 45% 30.27 in 10.0 mi West 19.6 mph - N/A   Clear
11:55 PM 39.2 °F 29.0 °F 19.4 °F 45% 30.26 in 10.0 mi West 21.9 mph 25.3 mph N/A   Clear